Time,TemperatureF,DewpointF,PressureIn,WindDirection,WindDirectionDegrees,WindSpeedMPH,WindSpeedGustMPH,Humidity,HourlyPrecipIn,Conditions,Clouds,dailyrainin,SoftwareType,DateUTC
2013-10-07 00:01:00,47.8,47.0,30.00,ESE,112,1.0,2.0,97,0.06,,,0.00,Rainwise IP-100,2013-10-07 04:01:00,
2013-10-07 00:02:00,47.8,47.0,30.00,SE,135,2.0,2.0,97,0.06,,,0.00,Rainwise IP-100,2013-10-07 04:02:00,
2013-10-07 00:07:00,47.8,47.0,30.00,ENE,67,1.0,4.0,97,0.00,,,0.00,Rainwise IP-100,2013-10-07 04:07:00,
2013-10-07 00:12:00,47.8,47.0,29.99,SE,135,1.0,4.0,97,0.00,,,0.00,Rainwise IP-100,2013-10-07 04:12:00,
2013-10-07 00:17:00,47.8,47.0,29.99,SE,135,1.0,4.0,97,0.00,,,0.00,Rainwise IP-100,2013-10-07 04:17:00,
2013-10-07 00:22:00,47.9,47.0,29.98,East,90,1.0,5.0,97,0.00,,,0.00,Rainwise IP-100,2013-10-07 04:22:00,
2013-10-07 00:27:00,47.9,47.0,29.98,East,90,0.0,4.0,97,0.00,,,0.00,Rainwise IP-100,2013-10-07 04:27:00,
2013-10-07 00:32:00,47.9,47.0,29.98,East,90,2.0,2.0,97,0.00,,,0.00,Rainwise IP-100,2013-10-07 04:32:00,
2013-10-07 00:37:00,47.9,47.0,29.98,ENE,67,0.0,5.0,97,0.00,,,0.00,Rainwise IP-100,2013-10-07 04:37:00,
2013-10-07 00:42:00,47.9,47.0,29.98,SSE,157,1.0,2.0,97,0.00,,,0.00,Rainwise IP-100,2013-10-07 04:42:00,
2013-10-07 00:47:00,47.9,47.0,29.98,ESE,112,2.0,3.0,97,0.00,,,0.00,Rainwise IP-100,2013-10-07 04:47:00,
2013-10-07 00:52:00,48.1,47.0,29.99,ESE,112,1.0,4.0,97,0.00,,,0.00,Rainwise IP-100,2013-10-07 04:52:00,
2013-10-07 00:57:00,48.1,47.0,29.99,ESE,112,3.0,3.0,97,0.00,,,0.00,Rainwise IP-100,2013-10-07 04:57:00,
2013-10-07 01:02:00,48.2,47.0,29.98,ESE,112,2.0,6.0,97,0.00,,,0.00,Rainwise IP-100,2013-10-07 05:02:00,
2013-10-07 01:07:00,48.2,47.0,29.98,ESE,112,2.0,2.0,97,0.00,,,0.00,Rainwise IP-100,2013-10-07 05:07:00,
2013-10-07 01:12:00,48.3,47.0,29.98,ESE,112,4.0,4.0,97,0.00,,,0.00,Rainwise IP-100,2013-10-07 05:12:00,
2013-10-07 01:17:00,48.3,47.0,29.98,SE,135,1.0,5.0,97,0.00,,,0.00,Rainwise IP-100,2013-10-07 05:17:00,
2013-10-07 01:22:00,48.4,47.0,29.99,ESE,112,3.0,5.0,97,0.00,,,0.00,Rainwise IP-100,2013-10-07 05:22:00,
2013-10-07 01:27:00,48.5,48.0,29.98,ESE,112,2.0,8.0,97,0.00,,,0.00,Rainwise IP-100,2013-10-07 05:27:00,
2013-10-07 01:32:00,48.5,48.0,29.98,ENE,67,1.0,2.0,97,0.00,,,0.00,Rainwise IP-100,2013-10-07 05:32:00,
2013-10-07 01:37:00,48.5,48.0,29.98,ESE,112,0.0,6.0,97,0.00,,,0.00,Rainwise IP-100,2013-10-07 05:37:00,
2013-10-07 01:42:00,48.5,48.0,29.98,NNW,337,1.0,5.0,97,0.00,,,0.00,Rainwise IP-100,2013-10-07 05:42:00,
2013-10-07 01:47:00,48.6,48.0,29.97,ESE,112,3.0,5.0,97,0.00,,,0.00,Rainwise IP-100,2013-10-07 05:47:00,
2013-10-07 01:52:00,48.7,48.0,29.97,ESE,112,2.0,8.0,97,0.00,,,0.00,Rainwise IP-100,2013-10-07 05:52:00,
2013-10-07 01:57:00,48.8,48.0,29.97,ENE,67,0.0,4.0,97,0.00,,,0.00,Rainwise IP-100,2013-10-07 05:57:00,
2013-10-07 02:02:00,48.9,48.0,29.97,East,90,2.0,7.0,97,0.00,,,0.00,Rainwise IP-100,2013-10-07 06:02:00,
2013-10-07 02:07:00,49.1,48.0,29.97,East,90,0.0,4.0,97,0.00,,,0.00,Rainwise IP-100,2013-10-07 06:07:00,
2013-10-07 02:12:00,49.2,48.0,29.97,ESE,112,2.0,6.0,97,0.00,,,0.00,Rainwise IP-100,2013-10-07 06:12:00,
2013-10-07 02:17:00,49.3,48.0,29.96,SE,135,1.0,7.0,97,0.00,,,0.00,Rainwise IP-100,2013-10-07 06:17:00,
2013-10-07 02:22:00,49.4,48.0,29.96,East,90,1.0,4.0,97,0.00,,,0.00,Rainwise IP-100,2013-10-07 06:22:00,
2013-10-07 02:27:00,49.5,49.0,29.96,SE,135,3.0,7.0,97,0.00,,,0.00,Rainwise IP-100,2013-10-07 06:27:00,
2013-10-07 02:32:00,49.6,49.0,29.96,SSW,202,0.0,3.0,97,0.00,,,0.00,Rainwise IP-100,2013-10-07 06:32:00,
2013-10-07 02:37:00,49.7,49.0,29.96,ESE,112,4.0,9.0,97,0.00,,,0.00,Rainwise IP-100,2013-10-07 06:37:00,
2013-10-07 02:42:00,49.7,49.0,29.96,ESE,112,2.0,7.0,97,0.00,,,0.00,Rainwise IP-100,2013-10-07 06:42:00,
2013-10-07 02:47:00,49.8,49.0,29.95,SE,135,2.0,7.0,97,0.00,,,0.00,Rainwise IP-100,2013-10-07 06:47:00,
2013-10-07 02:52:00,49.8,49.0,29.96,ESE,112,2.0,4.0,97,0.00,,,0.00,Rainwise IP-100,2013-10-07 06:52:00,
2013-10-07 03:04:00,50.2,49.0,29.95,ESE,112,4.0,4.0,97,0.00,,,0.00,Rainwise IP-100,2013-10-07 07:04:00,
2013-10-07 03:09:00,50.3,49.0,29.95,South,180,2.0,6.0,97,0.00,,,0.00,Rainwise IP-100,2013-10-07 07:09:00,
2013-10-07 03:14:00,50.3,49.0,29.95,ENE,67,1.0,3.0,97,0.00,,,0.00,Rainwise IP-100,2013-10-07 07:14:00,
2013-10-07 03:19:00,50.4,50.0,29.95,SE,135,4.0,4.0,97,0.00,,,0.00,Rainwise IP-100,2013-10-07 07:19:00,
2013-10-07 03:24:00,50.6,50.0,29.95,SE,135,2.0,5.0,97,0.00,,,0.00,Rainwise IP-100,2013-10-07 07:24:00,
2013-10-07 03:29:00,50.8,50.0,29.96,SE,135,2.0,5.0,97,0.00,,,0.00,Rainwise IP-100,2013-10-07 07:29:00,
2013-10-07 03:34:00,50.9,50.0,29.96,NE,45,1.0,7.0,97,0.00,,,0.00,Rainwise IP-100,2013-10-07 07:34:00,
2013-10-07 03:39:00,51.1,50.0,29.96,ESE,112,2.0,6.0,97,0.00,,,0.00,Rainwise IP-100,2013-10-07 07:39:00,
2013-10-07 03:44:00,51.4,50.0,29.95,ESE,112,4.0,6.0,97,0.00,,,0.00,Rainwise IP-100,2013-10-07 07:44:00,
2013-10-07 03:49:00,51.7,51.0,29.96,ESE,112,2.0,9.0,97,0.00,,,0.00,Rainwise IP-100,2013-10-07 07:49:00,
2013-10-07 03:54:00,51.9,51.0,29.95,ESE,112,4.0,6.0,97,0.00,,,0.00,Rainwise IP-100,2013-10-07 07:54:00,
2013-10-07 03:59:00,52.2,51.0,29.95,NE,45,5.0,9.0,97,0.00,,,0.00,Rainwise IP-100,2013-10-07 07:59:00,
2013-10-07 04:04:00,52.2,51.0,29.95,East,90,5.0,5.0,97,0.00,,,0.00,Rainwise IP-100,2013-10-07 08:04:00,
2013-10-07 04:09:00,52.3,51.0,29.95,ESE,112,1.0,7.0,97,0.00,,,0.00,Rainwise IP-100,2013-10-07 08:09:00,
2013-10-07 04:14:00,52.3,51.0,29.95,ESE,112,2.0,6.0,97,0.00,,,0.00,Rainwise IP-100,2013-10-07 08:14:00,
2013-10-07 04:19:00,52.3,51.0,29.94,ENE,67,3.0,9.0,97,0.00,,,0.00,Rainwise IP-100,2013-10-07 08:19:00,
2013-10-07 04:24:00,52.3,51.0,29.94,SSE,157,1.0,9.0,97,0.00,,,0.00,Rainwise IP-100,2013-10-07 08:24:00,
2013-10-07 04:29:00,52.3,51.0,29.94,East,90,4.0,5.0,97,0.00,,,0.00,Rainwise IP-100,2013-10-07 08:29:00,
2013-10-07 04:34:00,52.4,51.0,29.94,ENE,67,2.0,9.0,97,0.00,,,0.00,Rainwise IP-100,2013-10-07 08:34:00,
2013-10-07 04:39:00,52.5,52.0,29.94,SE,135,1.0,9.0,97,0.00,,,0.00,Rainwise IP-100,2013-10-07 08:39:00,
2013-10-07 04:44:00,52.6,52.0,29.94,ESE,112,2.0,9.0,97,0.00,,,0.00,Rainwise IP-100,2013-10-07 08:44:00,
2013-10-07 04:49:00,52.7,52.0,29.94,SSE,157,2.0,7.0,97,0.00,,,0.00,Rainwise IP-100,2013-10-07 08:49:00,
2013-10-07 04:54:00,52.7,52.0,29.94,ENE,67,2.0,5.0,97,0.00,,,0.00,Rainwise IP-100,2013-10-07 08:54:00,
2013-10-07 04:59:00,52.7,52.0,29.94,ESE,112,2.0,6.0,97,0.00,,,0.00,Rainwise IP-100,2013-10-07 08:59:00,
2013-10-07 05:04:00,52.5,52.0,29.94,ESE,112,2.0,9.0,97,0.06,,,0.01,Rainwise IP-100,2013-10-07 09:04:00,
2013-10-07 05:09:00,52.3,51.0,29.94,SE,135,3.0,5.0,97,0.18,,,0.03,Rainwise IP-100,2013-10-07 09:09:00,
2013-10-07 05:14:00,52.2,51.0,29.93,SSE,157,2.0,7.0,97,0.12,,,0.03,Rainwise IP-100,2013-10-07 09:14:00,
2013-10-07 05:19:00,52.2,51.0,29.94,ESE,112,2.0,7.0,97,0.00,,,0.03,Rainwise IP-100,2013-10-07 09:19:00,
2013-10-07 05:24:00,52.1,51.0,29.92,SW,225,2.0,5.0,97,0.00,,,0.03,Rainwise IP-100,2013-10-07 09:24:00,
2013-10-07 05:29:00,52.1,51.0,29.92,ESE,112,2.0,8.0,97,0.00,,,0.03,Rainwise IP-100,2013-10-07 09:29:00,
2013-10-07 05:34:00,52.2,51.0,29.92,ENE,67,3.0,16.0,97,0.00,,,0.03,Rainwise IP-100,2013-10-07 09:34:00,
2013-10-07 05:39:00,52.2,51.0,29.92,SW,225,3.0,14.0,97,0.00,,,0.03,Rainwise IP-100,2013-10-07 09:39:00,
2013-10-07 05:44:00,52.3,51.0,29.92,North,360,2.0,10.0,97,0.00,,,0.03,Rainwise IP-100,2013-10-07 09:44:00,
2013-10-07 05:49:00,52.4,51.0,29.92,West,270,2.0,6.0,97,0.00,,,0.03,Rainwise IP-100,2013-10-07 09:49:00,
2013-10-07 05:54:00,52.5,52.0,29.92,ESE,112,2.0,12.0,97,0.00,,,0.03,Rainwise IP-100,2013-10-07 09:54:00,
2013-10-07 05:59:00,52.8,52.0,29.92,South,180,4.0,9.0,97,0.00,,,0.03,Rainwise IP-100,2013-10-07 09:59:00,
2013-10-07 06:04:00,52.9,52.0,29.91,NNW,337,1.0,11.0,97,0.00,,,0.03,Rainwise IP-100,2013-10-07 10:04:00,
2013-10-07 06:09:00,53.2,52.0,29.91,ENE,67,1.0,17.0,97,0.06,,,0.04,Rainwise IP-100,2013-10-07 10:09:00,
2013-10-07 06:14:00,53.4,53.0,29.91,SSE,157,6.0,14.0,97,0.06,,,0.04,Rainwise IP-100,2013-10-07 10:14:00,
2013-10-07 06:19:00,53.7,53.0,29.90,ENE,67,9.0,15.0,97,0.00,,,0.04,Rainwise IP-100,2013-10-07 10:19:00,
2013-10-07 06:24:00,53.9,53.0,29.90,SSE,157,6.0,17.0,97,0.00,,,0.04,Rainwise IP-100,2013-10-07 10:24:00,
2013-10-07 06:29:00,53.9,53.0,29.90,ESE,112,2.0,16.0,97,0.00,,,0.04,Rainwise IP-100,2013-10-07 10:29:00,
2013-10-07 06:34:00,54.2,53.0,29.90,SSE,157,6.0,20.0,97,0.00,,,0.04,Rainwise IP-100,2013-10-07 10:34:00,
2013-10-07 06:39:00,54.4,54.0,29.90,SE,135,5.0,21.0,97,0.00,,,0.04,Rainwise IP-100,2013-10-07 10:39:00,
2013-10-07 06:44:00,54.4,54.0,29.90,NE,45,2.0,18.0,97,0.00,,,0.04,Rainwise IP-100,2013-10-07 10:44:00,
2013-10-07 06:49:00,54.4,54.0,29.90,ESE,112,6.0,16.0,97,0.00,,,0.04,Rainwise IP-100,2013-10-07 10:49:00,
2013-10-07 06:54:00,54.4,54.0,29.90,ESE,112,14.0,16.0,97,0.00,,,0.04,Rainwise IP-100,2013-10-07 10:54:00,
2013-10-07 06:59:00,54.6,54.0,29.90,SE,135,6.0,22.0,97,0.00,,,0.04,Rainwise IP-100,2013-10-07 10:59:00,
2013-10-07 07:04:00,54.6,54.0,29.90,ESE,112,5.0,18.0,97,0.00,,,0.04,Rainwise IP-100,2013-10-07 11:04:00,
2013-10-07 07:09:00,54.7,54.0,29.90,ENE,67,7.0,15.0,97,0.00,,,0.04,Rainwise IP-100,2013-10-07 11:09:00,
2013-10-07 07:14:00,54.8,54.0,29.90,SSE,157,5.0,18.0,97,0.00,,,0.04,Rainwise IP-100,2013-10-07 11:14:00,
2013-10-07 07:19:00,54.9,54.0,29.89,ENE,67,7.0,24.0,97,0.00,,,0.04,Rainwise IP-100,2013-10-07 11:19:00,
2013-10-07 07:24:00,55.2,54.0,29.90,ENE,67,4.0,17.0,97,0.00,,,0.04,Rainwise IP-100,2013-10-07 11:24:00,
2013-10-07 07:29:00,55.3,54.0,29.89,ESE,112,7.0,16.0,97,0.00,,,0.04,Rainwise IP-100,2013-10-07 11:29:00,
2013-10-07 07:34:00,55.3,54.0,29.88,NE,45,7.0,16.0,97,0.00,,,0.04,Rainwise IP-100,2013-10-07 11:34:00,
2013-10-07 07:39:00,55.3,54.0,29.89,ESE,112,14.0,21.0,97,0.00,,,0.04,Rainwise IP-100,2013-10-07 11:39:00,
2013-10-07 07:44:00,55.4,54.0,29.88,SSE,157,14.0,21.0,97,0.00,,,0.04,Rainwise IP-100,2013-10-07 11:44:00,
2013-10-07 07:49:00,55.5,55.0,29.88,SE,135,2.0,20.0,97,0.00,,,0.04,Rainwise IP-100,2013-10-07 11:49:00,
2013-10-07 07:54:00,55.5,55.0,29.89,ESE,112,2.0,20.0,97,0.00,,,0.04,Rainwise IP-100,2013-10-07 11:54:00,
2013-10-07 07:59:00,55.6,55.0,29.89,SSE,157,2.0,13.0,97,0.00,,,0.04,Rainwise IP-100,2013-10-07 11:59:00,
2013-10-07 08:04:00,55.8,55.0,29.89,East,90,6.0,17.0,97,0.00,,,0.04,Rainwise IP-100,2013-10-07 12:04:00,
2013-10-07 08:09:00,55.9,55.0,29.88,SSE,157,1.0,14.0,97,0.00,,,0.04,Rainwise IP-100,2013-10-07 12:09:00,
2013-10-07 08:14:00,56.1,55.0,29.89,ENE,67,4.0,16.0,97,0.00,,,0.04,Rainwise IP-100,2013-10-07 12:14:00,
2013-10-07 08:19:00,56.2,55.0,29.89,ENE,67,7.0,12.0,97,0.00,,,0.04,Rainwise IP-100,2013-10-07 12:19:00,
2013-10-07 08:24:00,56.3,55.0,29.89,West,270,2.0,12.0,97,0.00,,,0.04,Rainwise IP-100,2013-10-07 12:24:00,
2013-10-07 08:29:00,56.5,56.0,29.89,SSE,157,2.0,19.0,97,0.00,,,0.04,Rainwise IP-100,2013-10-07 12:29:00,
2013-10-07 08:34:00,56.6,56.0,29.89,South,180,4.0,17.0,97,0.00,,,0.04,Rainwise IP-100,2013-10-07 12:34:00,
2013-10-07 08:39:00,56.8,56.0,29.88,SE,135,7.0,12.0,97,0.00,,,0.04,Rainwise IP-100,2013-10-07 12:39:00,
2013-10-07 08:44:00,57.2,56.0,29.88,SSE,157,11.0,12.0,97,0.00,,,0.04,Rainwise IP-100,2013-10-07 12:44:00,
2013-10-07 08:49:00,57.5,56.0,29.88,SE,135,5.0,19.0,96,0.00,,,0.04,Rainwise IP-100,2013-10-07 12:49:00,
2013-10-07 08:54:00,57.7,56.0,29.88,ESE,112,5.0,19.0,95,0.00,,,0.04,Rainwise IP-100,2013-10-07 12:54:00,
2013-10-07 08:59:00,57.7,56.0,29.89,ESE,112,3.0,17.0,96,0.00,,,0.04,Rainwise IP-100,2013-10-07 12:59:00,
2013-10-07 09:04:00,57.6,56.0,29.88,ESE,112,7.0,16.0,96,0.00,,,0.04,Rainwise IP-100,2013-10-07 13:04:00,
2013-10-07 09:09:00,57.7,56.0,29.88,SSE,157,5.0,17.0,96,0.00,,,0.04,Rainwise IP-100,2013-10-07 13:09:00,
2013-10-07 09:14:00,58.0,57.0,29.88,SE,135,6.0,15.0,96,0.00,,,0.04,Rainwise IP-100,2013-10-07 13:14:00,
2013-10-07 09:19:00,58.4,57.0,29.88,SSE,157,8.0,18.0,96,0.00,,,0.04,Rainwise IP-100,2013-10-07 13:19:00,
2013-10-07 09:24:00,58.6,57.0,29.88,ESE,112,2.0,14.0,96,0.00,,,0.04,Rainwise IP-100,2013-10-07 13:24:00,
2013-10-07 09:29:00,58.7,57.0,29.88,SSE,157,4.0,14.0,96,0.00,,,0.04,Rainwise IP-100,2013-10-07 13:29:00,
2013-10-07 09:34:00,58.8,57.0,29.88,ENE,67,6.0,16.0,95,0.00,,,0.04,Rainwise IP-100,2013-10-07 13:34:00,
2013-10-07 09:39:00,58.9,57.0,29.88,ESE,112,4.0,20.0,96,0.00,,,0.04,Rainwise IP-100,2013-10-07 13:39:00,
2013-10-07 09:44:00,59.1,57.0,29.88,SE,135,11.0,17.0,96,0.00,,,0.04,Rainwise IP-100,2013-10-07 13:44:00,
2013-10-07 09:49:00,59.2,57.0,29.88,ESE,112,7.0,20.0,95,0.00,,,0.04,Rainwise IP-100,2013-10-07 13:49:00,
2013-10-07 09:54:00,59.4,57.0,29.88,South,180,6.0,19.0,95,0.00,,,0.04,Rainwise IP-100,2013-10-07 13:54:00,
2013-10-07 09:59:00,59.6,57.0,29.88,ENE,67,4.0,21.0,95,0.06,,,0.05,Rainwise IP-100,2013-10-07 13:59:00,
2013-10-07 10:04:00,59.6,57.0,29.88,ESE,112,6.0,16.0,95,0.06,,,0.05,Rainwise IP-100,2013-10-07 14:04:00,
2013-10-07 10:09:00,59.4,58.0,29.88,SSE,157,7.0,21.0,96,0.00,,,0.05,Rainwise IP-100,2013-10-07 14:09:00,
2013-10-07 10:14:00,59.2,58.0,29.88,NE,45,1.0,19.0,97,0.00,,,0.05,Rainwise IP-100,2013-10-07 14:14:00,
2013-10-07 10:19:00,59.2,58.0,29.87,NNE,22,2.0,16.0,97,0.00,,,0.05,Rainwise IP-100,2013-10-07 14:19:00,
2013-10-07 10:24:00,59.2,58.0,29.88,East,90,6.0,14.0,97,0.00,,,0.05,Rainwise IP-100,2013-10-07 14:24:00,
2013-10-07 10:29:00,59.3,57.0,29.87,ESE,112,2.0,20.0,96,0.00,,,0.05,Rainwise IP-100,2013-10-07 14:29:00,
2013-10-07 10:34:00,59.2,58.0,29.88,ENE,67,4.0,18.0,97,0.00,,,0.05,Rainwise IP-100,2013-10-07 14:34:00,
2013-10-07 10:39:00,59.2,58.0,29.88,ESE,112,4.0,19.0,97,0.00,,,0.05,Rainwise IP-100,2013-10-07 14:39:00,
2013-10-07 10:44:00,59.2,58.0,29.88,South,180,2.0,19.0,97,0.00,,,0.05,Rainwise IP-100,2013-10-07 14:44:00,
2013-10-07 10:49:00,59.2,58.0,29.87,SSE,157,7.0,18.0,97,0.00,,,0.05,Rainwise IP-100,2013-10-07 14:49:00,
2013-10-07 10:54:00,59.4,58.0,29.87,South,180,7.0,16.0,97,0.00,,,0.05,Rainwise IP-100,2013-10-07 14:54:00,
2013-10-07 10:59:00,59.4,58.0,29.87,ESE,112,6.0,17.0,97,0.00,,,0.05,Rainwise IP-100,2013-10-07 14:59:00,
2013-10-07 11:04:00,59.4,58.0,29.87,ESE,112,11.0,16.0,97,0.00,,,0.05,Rainwise IP-100,2013-10-07 15:04:00,
2013-10-07 11:09:00,59.4,58.0,29.87,ESE,112,7.0,17.0,97,0.00,,,0.05,Rainwise IP-100,2013-10-07 15:09:00,
2013-10-07 11:14:00,59.5,58.0,29.86,SE,135,8.0,14.0,97,0.00,,,0.05,Rainwise IP-100,2013-10-07 15:14:00,
2013-10-07 11:19:00,59.7,58.0,29.86,ENE,67,4.0,19.0,97,0.00,,,0.05,Rainwise IP-100,2013-10-07 15:19:00,
2013-10-07 11:24:00,59.7,58.0,29.86,NNE,22,2.0,16.0,97,0.00,,,0.05,Rainwise IP-100,2013-10-07 15:24:00,
2013-10-07 11:29:00,59.9,59.0,29.86,ESE,112,6.0,15.0,96,0.00,,,0.05,Rainwise IP-100,2013-10-07 15:29:00,
2013-10-07 11:34:00,60.2,59.0,29.86,SE,135,6.0,18.0,96,0.00,,,0.05,Rainwise IP-100,2013-10-07 15:34:00,
2013-10-07 11:39:00,60.4,59.0,29.86,SE,135,6.0,18.0,95,0.00,,,0.05,Rainwise IP-100,2013-10-07 15:39:00,
2013-10-07 11:44:00,60.5,59.0,29.86,SSW,202,8.0,16.0,96,0.00,,,0.05,Rainwise IP-100,2013-10-07 15:44:00,
2013-10-07 11:49:00,60.8,59.0,29.86,South,180,4.0,21.0,95,0.00,,,0.05,Rainwise IP-100,2013-10-07 15:49:00,
2013-10-07 11:54:00,60.9,59.0,29.86,East,90,1.0,19.0,95,0.00,,,0.05,Rainwise IP-100,2013-10-07 15:54:00,
2013-10-07 11:59:00,60.9,59.0,29.86,ESE,112,5.0,19.0,94,0.00,,,0.05,Rainwise IP-100,2013-10-07 15:59:00,
2013-10-07 12:04:00,61.0,59.0,29.86,ESE,112,2.0,16.0,94,0.00,,,0.05,Rainwise IP-100,2013-10-07 16:04:00,
2013-10-07 12:09:00,61.1,59.0,29.86,East,90,4.0,15.0,94,0.00,,,0.05,Rainwise IP-100,2013-10-07 16:09:00,
2013-10-07 12:14:00,61.1,59.0,29.86,ESE,112,10.0,17.0,94,0.00,,,0.05,Rainwise IP-100,2013-10-07 16:14:00,
2013-10-07 12:19:00,61.1,59.0,29.86,East,90,4.0,17.0,94,0.00,,,0.05,Rainwise IP-100,2013-10-07 16:19:00,
2013-10-07 12:24:00,61.4,60.0,29.86,SE,135,6.0,19.0,94,0.00,,,0.05,Rainwise IP-100,2013-10-07 16:24:00,
2013-10-07 12:29:00,61.8,59.0,29.85,ESE,112,7.0,19.0,93,0.00,,,0.05,Rainwise IP-100,2013-10-07 16:29:00,
2013-10-07 12:34:00,62.2,60.0,29.85,SE,135,8.0,17.0,92,0.00,,,0.05,Rainwise IP-100,2013-10-07 16:34:00,
2013-10-07 12:39:00,62.2,60.0,29.85,ESE,112,7.0,17.0,92,0.00,,,0.05,Rainwise IP-100,2013-10-07 16:39:00,
2013-10-07 12:44:00,62.1,60.0,29.85,SSE,157,6.0,22.0,93,0.00,,,0.05,Rainwise IP-100,2013-10-07 16:44:00,
2013-10-07 12:49:00,61.9,60.0,29.84,ESE,112,6.0,18.0,93,0.00,,,0.05,Rainwise IP-100,2013-10-07 16:49:00,
2013-10-07 12:54:00,62.0,60.0,29.84,ESE,112,5.0,18.0,93,0.00,,,0.05,Rainwise IP-100,2013-10-07 16:54:00,
2013-10-07 12:59:00,62.3,60.0,29.82,SSE,157,6.0,18.0,93,0.00,,,0.05,Rainwise IP-100,2013-10-07 16:59:00,
2013-10-07 13:04:00,62.4,60.0,29.82,SE,135,7.0,16.0,93,0.00,,,0.05,Rainwise IP-100,2013-10-07 17:04:00,
2013-10-07 13:09:00,62.3,60.0,29.82,SE,135,5.0,19.0,93,0.00,,,0.05,Rainwise IP-100,2013-10-07 17:09:00,
2013-10-07 13:14:00,62.4,60.0,29.82,ESE,112,6.0,23.0,93,0.00,,,0.05,Rainwise IP-100,2013-10-07 17:14:00,
2013-10-07 13:19:00,62.6,60.0,29.81,SE,135,8.0,17.0,92,0.00,,,0.05,Rainwise IP-100,2013-10-07 17:19:00,
2013-10-07 13:24:00,62.6,60.0,29.82,ENE,67,6.0,21.0,92,0.00,,,0.05,Rainwise IP-100,2013-10-07 17:24:00,
2013-10-07 13:29:00,62.7,60.0,29.81,SE,135,12.0,15.0,93,0.00,,,0.05,Rainwise IP-100,2013-10-07 17:29:00,
2013-10-07 13:34:00,62.7,60.0,29.82,SSE,157,1.0,16.0,92,0.00,,,0.05,Rainwise IP-100,2013-10-07 17:34:00,
2013-10-07 13:39:00,62.7,60.0,29.81,ESE,112,5.0,14.0,92,0.00,,,0.05,Rainwise IP-100,2013-10-07 17:39:00,
2013-10-07 13:44:00,62.8,60.0,29.81,SSE,157,11.0,15.0,92,0.00,,,0.05,Rainwise IP-100,2013-10-07 17:44:00,
2013-10-07 13:49:00,62.7,60.0,29.81,ESE,112,10.0,14.0,92,0.00,,,0.05,Rainwise IP-100,2013-10-07 17:49:00,
2013-10-07 13:54:00,62.7,60.0,29.81,East,90,9.0,15.0,93,0.00,,,0.05,Rainwise IP-100,2013-10-07 17:54:00,
2013-10-07 13:59:00,62.7,60.0,29.81,South,180,10.0,15.0,93,0.00,,,0.05,Rainwise IP-100,2013-10-07 17:59:00,
2013-10-07 14:04:00,62.6,61.0,29.81,SSE,157,4.0,15.0,94,0.00,,,0.05,Rainwise IP-100,2013-10-07 18:04:00,
2013-10-07 14:09:00,62.7,61.0,29.80,ESE,112,6.0,14.0,94,0.00,,,0.05,Rainwise IP-100,2013-10-07 18:09:00,
2013-10-07 14:14:00,62.6,61.0,29.80,ESE,112,8.0,18.0,94,0.00,,,0.05,Rainwise IP-100,2013-10-07 18:14:00,
2013-10-07 14:19:00,62.6,61.0,29.80,South,180,10.0,14.0,95,0.00,,,0.05,Rainwise IP-100,2013-10-07 18:19:00,
2013-10-07 14:24:00,62.8,61.0,29.80,SE,135,6.0,16.0,94,0.00,,,0.05,Rainwise IP-100,2013-10-07 18:24:00,
2013-10-07 14:29:00,62.9,61.0,29.79,ENE,67,4.0,16.0,94,0.00,,,0.05,Rainwise IP-100,2013-10-07 18:29:00,
2013-10-07 14:34:00,63.1,61.0,29.79,ESE,112,7.0,17.0,94,0.00,,,0.05,Rainwise IP-100,2013-10-07 18:34:00,
2013-10-07 14:39:00,63.2,61.0,29.79,SSE,157,15.0,15.0,94,0.00,,,0.05,Rainwise IP-100,2013-10-07 18:39:00,
2013-10-07 14:44:00,63.1,61.0,29.78,East,90,4.0,19.0,94,0.00,,,0.05,Rainwise IP-100,2013-10-07 18:44:00,
2013-10-07 14:49:00,63.1,61.0,29.78,ESE,112,2.0,19.0,94,0.00,,,0.05,Rainwise IP-100,2013-10-07 18:49:00,
2013-10-07 14:54:00,63.0,61.0,29.78,SE,135,1.0,18.0,95,0.00,,,0.05,Rainwise IP-100,2013-10-07 18:54:00,
2013-10-07 14:59:00,63.1,61.0,29.78,ESE,112,2.0,17.0,95,0.00,,,0.05,Rainwise IP-100,2013-10-07 18:59:00,
2013-10-07 15:04:00,63.3,61.0,29.77,ESE,112,9.0,17.0,95,0.00,,,0.05,Rainwise IP-100,2013-10-07 19:04:00,
2013-10-07 15:09:00,63.3,61.0,29.77,SSE,157,6.0,19.0,94,0.00,,,0.05,Rainwise IP-100,2013-10-07 19:09:00,
2013-10-07 15:14:00,63.3,61.0,29.77,ESE,112,4.0,19.0,95,0.00,,,0.05,Rainwise IP-100,2013-10-07 19:14:00,
2013-10-07 15:19:00,63.2,61.0,29.76,SW,225,2.0,18.0,95,0.00,,,0.05,Rainwise IP-100,2013-10-07 19:19:00,
2013-10-07 15:24:00,63.1,61.0,29.77,ESE,112,2.0,14.0,95,0.00,,,0.05,Rainwise IP-100,2013-10-07 19:24:00,
2013-10-07 15:29:00,63.0,61.0,29.77,ESE,112,18.0,18.0,95,0.00,,,0.05,Rainwise IP-100,2013-10-07 19:29:00,
2013-10-07 15:34:00,63.0,61.0,29.76,ESE,112,9.0,19.0,95,0.00,,,0.05,Rainwise IP-100,2013-10-07 19:34:00,
2013-10-07 15:39:00,63.1,62.0,29.76,ESE,112,9.0,17.0,96,0.00,,,0.05,Rainwise IP-100,2013-10-07 19:39:00,
2013-10-07 15:44:00,63.1,62.0,29.76,SSE,157,11.0,20.0,96,0.00,,,0.05,Rainwise IP-100,2013-10-07 19:44:00,
2013-10-07 15:49:00,63.0,62.0,29.76,SSE,157,2.0,19.0,96,0.00,,,0.05,Rainwise IP-100,2013-10-07 19:49:00,
2013-10-07 15:54:00,63.1,62.0,29.75,SW,225,3.0,19.0,96,0.00,,,0.05,Rainwise IP-100,2013-10-07 19:54:00,
2013-10-07 15:59:00,63.1,62.0,29.75,ENE,67,4.0,18.0,96,0.00,,,0.05,Rainwise IP-100,2013-10-07 19:59:00,
2013-10-07 16:04:00,63.1,62.0,29.75,ESE,112,10.0,21.0,96,0.00,,,0.05,Rainwise IP-100,2013-10-07 20:04:00,
2013-10-07 16:09:00,63.2,62.0,29.74,ENE,67,4.0,21.0,96,0.00,,,0.05,Rainwise IP-100,2013-10-07 20:09:00,
2013-10-07 16:14:00,63.2,62.0,29.74,ESE,112,11.0,18.0,97,0.00,,,0.05,Rainwise IP-100,2013-10-07 20:14:00,
2013-10-07 16:19:00,63.2,62.0,29.75,ESE,112,9.0,17.0,97,0.00,,,0.05,Rainwise IP-100,2013-10-07 20:19:00,
2013-10-07 16:24:00,63.2,62.0,29.75,ENE,67,5.0,20.0,97,0.00,,,0.05,Rainwise IP-100,2013-10-07 20:24:00,
2013-10-07 16:29:00,63.2,62.0,29.75,SSE,157,2.0,19.0,98,0.00,,,0.05,Rainwise IP-100,2013-10-07 20:29:00,
2013-10-07 16:34:00,63.2,62.0,29.74,ESE,112,8.0,19.0,98,0.00,,,0.05,Rainwise IP-100,2013-10-07 20:34:00,
2013-10-07 16:39:00,63.3,62.0,29.74,SE,135,2.0,19.0,98,0.00,,,0.05,Rainwise IP-100,2013-10-07 20:39:00,
2013-10-07 16:44:00,63.3,62.0,29.74,ENE,67,1.0,19.0,98,0.00,,,0.05,Rainwise IP-100,2013-10-07 20:44:00,
2013-10-07 16:49:00,63.3,62.0,29.75,SSE,157,8.0,24.0,98,0.00,,,0.05,Rainwise IP-100,2013-10-07 20:49:00,
2013-10-07 16:54:00,63.3,62.0,29.74,SSE,157,11.0,21.0,98,0.00,,,0.05,Rainwise IP-100,2013-10-07 20:54:00,
2013-10-07 16:59:00,63.3,62.0,29.74,SE,135,10.0,26.0,98,0.00,,,0.05,Rainwise IP-100,2013-10-07 20:59:00,
2013-10-07 17:04:00,63.3,62.0,29.74,SE,135,2.0,19.0,98,0.00,,,0.05,Rainwise IP-100,2013-10-07 21:04:00,
2013-10-07 17:09:00,63.4,63.0,29.74,SSE,157,2.0,16.0,98,0.00,,,0.05,Rainwise IP-100,2013-10-07 21:09:00,
2013-10-07 17:14:00,63.4,63.0,29.74,ESE,112,15.0,24.0,98,0.00,,,0.05,Rainwise IP-100,2013-10-07 21:14:00,
2013-10-07 17:19:00,63.4,63.0,29.74,ENE,67,3.0,19.0,98,0.00,,,0.05,Rainwise IP-100,2013-10-07 21:19:00,
2013-10-07 17:24:00,63.5,63.0,29.74,SSE,157,1.0,17.0,98,0.00,,,0.05,Rainwise IP-100,2013-10-07 21:24:00,
2013-10-07 17:29:00,63.5,63.0,29.74,SE,135,8.0,21.0,98,0.00,,,0.05,Rainwise IP-100,2013-10-07 21:29:00,
2013-10-07 17:34:00,63.4,63.0,29.73,SSE,157,7.0,24.0,98,0.00,,,0.05,Rainwise IP-100,2013-10-07 21:34:00,
2013-10-07 17:39:00,63.3,62.0,29.73,SSE,157,10.0,21.0,98,0.00,,,0.05,Rainwise IP-100,2013-10-07 21:39:00,
2013-10-07 17:44:00,63.2,62.0,29.73,SSE,157,7.0,17.0,98,0.00,,,0.05,Rainwise IP-100,2013-10-07 21:44:00,
2013-10-07 17:49:00,63.1,62.0,29.73,East,90,7.0,21.0,98,0.00,,,0.05,Rainwise IP-100,2013-10-07 21:49:00,
2013-10-07 17:54:00,63.1,62.0,29.73,SSW,202,9.0,16.0,98,0.00,,,0.05,Rainwise IP-100,2013-10-07 21:54:00,
2013-10-07 17:59:00,63.2,62.0,29.73,South,180,2.0,19.0,98,0.00,,,0.05,Rainwise IP-100,2013-10-07 21:59:00,
2013-10-07 18:04:00,63.3,62.0,29.73,SE,135,13.0,16.0,98,0.00,,,0.05,Rainwise IP-100,2013-10-07 22:04:00,
2013-10-07 18:09:00,63.3,62.0,29.72,ENE,67,5.0,15.0,98,0.00,,,0.05,Rainwise IP-100,2013-10-07 22:09:00,
2013-10-07 18:14:00,63.3,62.0,29.72,SSW,202,7.0,19.0,98,0.00,,,0.05,Rainwise IP-100,2013-10-07 22:14:00,
2013-10-07 18:19:00,63.3,62.0,29.72,ESE,112,4.0,18.0,98,0.00,,,0.05,Rainwise IP-100,2013-10-07 22:19:00,
2013-10-07 18:24:00,63.1,62.0,29.72,ESE,112,5.0,19.0,98,0.00,,,0.05,Rainwise IP-100,2013-10-07 22:24:00,
2013-10-07 18:29:00,63.1,62.0,29.72,ESE,112,2.0,19.0,98,0.00,,,0.05,Rainwise IP-100,2013-10-07 22:29:00,
2013-10-07 18:34:00,62.9,62.0,29.72,East,90,8.0,19.0,98,0.00,,,0.05,Rainwise IP-100,2013-10-07 22:34:00,
2013-10-07 18:39:00,62.9,62.0,29.72,South,180,7.0,19.0,98,0.00,,,0.05,Rainwise IP-100,2013-10-07 22:39:00,
2013-10-07 18:44:00,62.9,62.0,29.72,SSW,202,9.0,20.0,98,0.00,,,0.05,Rainwise IP-100,2013-10-07 22:44:00,
2013-10-07 18:49:00,62.9,62.0,29.72,SW,225,2.0,18.0,98,0.00,,,0.05,Rainwise IP-100,2013-10-07 22:49:00,
2013-10-07 18:54:00,62.9,62.0,29.72,ESE,112,11.0,12.0,98,0.00,,,0.05,Rainwise IP-100,2013-10-07 22:54:00,
2013-10-07 18:59:00,62.7,62.0,29.71,ESE,112,9.0,17.0,98,0.00,,,0.05,Rainwise IP-100,2013-10-07 22:59:00,
2013-10-07 19:04:00,62.7,62.0,29.72,SE,135,11.0,21.0,98,0.00,,,0.05,Rainwise IP-100,2013-10-07 23:04:00,
2013-10-07 19:09:00,62.6,62.0,29.72,NNE,22,2.0,20.0,98,0.00,,,0.05,Rainwise IP-100,2013-10-07 23:09:00,
2013-10-07 19:14:00,62.6,62.0,29.71,ESE,112,9.0,16.0,98,0.00,,,0.05,Rainwise IP-100,2013-10-07 23:14:00,
2013-10-07 19:19:00,62.5,62.0,29.71,SE,135,10.0,22.0,98,0.00,,,0.05,Rainwise IP-100,2013-10-07 23:19:00,
2013-10-07 19:24:00,62.5,62.0,29.71,East,90,6.0,21.0,98,0.00,,,0.05,Rainwise IP-100,2013-10-07 23:24:00,
2013-10-07 19:29:00,62.4,62.0,29.70,ESE,112,5.0,21.0,98,0.00,,,0.05,Rainwise IP-100,2013-10-07 23:29:00,
2013-10-07 19:34:00,62.5,62.0,29.71,SSE,157,4.0,19.0,98,0.00,,,0.05,Rainwise IP-100,2013-10-07 23:34:00,
2013-10-07 19:39:00,62.7,62.0,29.70,ENE,67,7.0,21.0,98,0.00,,,0.05,Rainwise IP-100,2013-10-07 23:39:00,
2013-10-07 19:44:00,62.7,62.0,29.70,ESE,112,4.0,22.0,98,0.00,,,0.05,Rainwise IP-100,2013-10-07 23:44:00,
2013-10-07 19:49:00,62.7,62.0,29.70,ESE,112,6.0,18.0,98,0.00,,,0.05,Rainwise IP-100,2013-10-07 23:49:00,
2013-10-07 19:54:00,62.7,62.0,29.70,ESE,112,3.0,24.0,98,0.00,,,0.05,Rainwise IP-100,2013-10-07 23:54:00,
2013-10-07 19:59:00,62.7,62.0,29.70,SE,135,11.0,22.0,98,0.00,,,0.05,Rainwise IP-100,2013-10-07 23:59:00,
2013-10-07 20:04:00,62.7,62.0,29.70,SE,135,14.0,21.0,98,0.00,,,0.05,Rainwise IP-100,2013-10-08 00:04:00,
2013-10-07 20:09:00,62.7,62.0,29.70,SSW,202,14.0,19.0,98,0.00,,,0.05,Rainwise IP-100,2013-10-08 00:09:00,
2013-10-07 20:14:00,62.7,62.0,29.70,East,90,3.0,23.0,98,0.00,,,0.05,Rainwise IP-100,2013-10-08 00:14:00,
2013-10-07 20:19:00,62.6,62.0,29.70,South,180,14.0,19.0,98,0.00,,,0.05,Rainwise IP-100,2013-10-08 00:19:00,
2013-10-07 20:24:00,62.5,62.0,29.70,SSE,157,6.0,16.0,98,0.00,,,0.05,Rainwise IP-100,2013-10-08 00:24:00,
2013-10-07 20:29:00,62.4,62.0,29.70,SSE,157,6.0,18.0,98,0.00,,,0.05,Rainwise IP-100,2013-10-08 00:29:00,
2013-10-07 20:34:00,62.5,62.0,29.70,SE,135,9.0,25.0,98,0.00,,,0.05,Rainwise IP-100,2013-10-08 00:34:00,
2013-10-07 20:39:00,62.5,62.0,29.69,ESE,112,13.0,17.0,98,0.00,,,0.05,Rainwise IP-100,2013-10-08 00:39:00,
2013-10-07 20:44:00,62.4,62.0,29.69,ENE,67,6.0,21.0,98,0.00,,,0.05,Rainwise IP-100,2013-10-08 00:44:00,
2013-10-07 20:49:00,62.4,62.0,29.69,SSE,157,11.0,17.0,98,0.00,,,0.05,Rainwise IP-100,2013-10-08 00:49:00,
2013-10-07 20:54:00,62.4,62.0,29.69,SSE,157,15.0,18.0,98,0.00,,,0.05,Rainwise IP-100,2013-10-08 00:54:00,
2013-10-07 20:59:00,62.3,61.0,29.69,SSW,202,4.0,17.0,98,0.00,,,0.05,Rainwise IP-100,2013-10-08 00:59:00,
2013-10-07 21:04:00,62.3,61.0,29.68,ESE,112,12.0,18.0,98,0.00,,,0.05,Rainwise IP-100,2013-10-08 01:04:00,
2013-10-07 21:09:00,62.3,61.0,29.68,SE,135,9.0,14.0,98,0.00,,,0.05,Rainwise IP-100,2013-10-08 01:09:00,
2013-10-07 21:14:00,62.3,61.0,29.67,SE,135,14.0,19.0,98,0.00,,,0.05,Rainwise IP-100,2013-10-08 01:14:00,
2013-10-07 21:19:00,62.4,62.0,29.68,ESE,112,11.0,22.0,98,0.00,,,0.05,Rainwise IP-100,2013-10-08 01:19:00,
2013-10-07 21:24:00,62.4,62.0,29.68,SE,135,7.0,20.0,98,0.00,,,0.05,Rainwise IP-100,2013-10-08 01:24:00,
2013-10-07 21:29:00,62.3,61.0,29.68,South,180,4.0,19.0,98,0.00,,,0.05,Rainwise IP-100,2013-10-08 01:29:00,
2013-10-07 21:34:00,62.3,61.0,29.68,SSE,157,7.0,19.0,98,0.00,,,0.05,Rainwise IP-100,2013-10-08 01:34:00,
2013-10-07 21:39:00,62.4,62.0,29.68,SE,135,7.0,19.0,98,0.00,,,0.05,Rainwise IP-100,2013-10-08 01:39:00,
2013-10-07 21:44:00,62.4,62.0,29.67,ENE,67,4.0,18.0,98,0.00,,,0.05,Rainwise IP-100,2013-10-08 01:44:00,
2013-10-07 21:49:00,62.2,61.0,29.67,ESE,112,7.0,15.0,98,0.00,,,0.05,Rainwise IP-100,2013-10-08 01:49:00,
2013-10-07 21:54:00,62.1,61.0,29.66,SE,135,20.0,21.0,98,0.00,,,0.05,Rainwise IP-100,2013-10-08 01:54:00,
2013-10-07 21:59:00,62.1,61.0,29.66,South,180,7.0,20.0,98,0.00,,,0.05,Rainwise IP-100,2013-10-08 01:59:00,
2013-10-07 22:04:00,62.1,61.0,29.66,ESE,112,7.0,17.0,98,0.00,,,0.05,Rainwise IP-100,2013-10-08 02:04:00,
2013-10-07 22:09:00,62.3,61.0,29.66,SSW,202,2.0,17.0,98,0.00,,,0.05,Rainwise IP-100,2013-10-08 02:09:00,
2013-10-07 22:14:00,62.3,61.0,29.65,NNE,22,1.0,24.0,98,0.00,,,0.05,Rainwise IP-100,2013-10-08 02:14:00,
2013-10-07 22:19:00,62.4,62.0,29.65,ESE,112,12.0,17.0,98,0.00,,,0.05,Rainwise IP-100,2013-10-08 02:19:00,
2013-10-07 22:24:00,62.4,62.0,29.65,ESE,112,9.0,16.0,98,0.00,,,0.05,Rainwise IP-100,2013-10-08 02:24:00,
2013-10-07 22:29:00,62.3,61.0,29.65,SSE,157,12.0,21.0,98,0.00,,,0.05,Rainwise IP-100,2013-10-08 02:29:00,
2013-10-07 22:34:00,62.1,61.0,29.64,NW,315,1.0,16.0,98,0.00,,,0.05,Rainwise IP-100,2013-10-08 02:34:00,
2013-10-07 22:39:00,62.3,61.0,29.64,SE,135,11.0,20.0,98,0.00,,,0.05,Rainwise IP-100,2013-10-08 02:39:00,
2013-10-07 22:44:00,62.4,62.0,29.64,SE,135,12.0,19.0,98,0.00,,,0.05,Rainwise IP-100,2013-10-08 02:44:00,
2013-10-07 22:49:00,62.3,61.0,29.64,SSE,157,1.0,15.0,98,0.00,,,0.05,Rainwise IP-100,2013-10-08 02:49:00,
2013-10-07 22:54:00,62.3,61.0,29.63,ESE,112,4.0,16.0,98,0.00,,,0.05,Rainwise IP-100,2013-10-08 02:54:00,
2013-10-07 22:59:00,62.5,62.0,29.64,SSE,157,4.0,16.0,98,0.00,,,0.05,Rainwise IP-100,2013-10-08 02:59:00,
2013-10-07 23:04:00,62.6,62.0,29.63,SSE,157,10.0,18.0,98,0.00,,,0.05,Rainwise IP-100,2013-10-08 03:04:00,
2013-10-07 23:09:00,62.4,62.0,29.63,SE,135,7.0,17.0,98,0.00,,,0.05,Rainwise IP-100,2013-10-08 03:09:00,
2013-10-07 23:14:00,62.4,62.0,29.63,SE,135,9.0,17.0,98,0.00,,,0.05,Rainwise IP-100,2013-10-08 03:14:00,
2013-10-07 23:19:00,62.4,62.0,29.62,SSE,157,3.0,17.0,98,0.00,,,0.05,Rainwise IP-100,2013-10-08 03:19:00,
2013-10-07 23:24:00,62.6,62.0,29.62,SSW,202,6.0,15.0,98,0.00,,,0.05,Rainwise IP-100,2013-10-08 03:24:00,
2013-10-07 23:29:00,62.7,62.0,29.62,ESE,112,14.0,17.0,98,0.00,,,0.05,Rainwise IP-100,2013-10-08 03:29:00,
2013-10-07 23:34:00,62.7,62.0,29.62,SE,135,6.0,17.0,98,0.00,,,0.05,Rainwise IP-100,2013-10-08 03:34:00,
2013-10-07 23:39:00,62.8,62.0,29.62,SSE,157,17.0,17.0,98,0.00,,,0.05,Rainwise IP-100,2013-10-08 03:39:00,
2013-10-07 23:44:00,62.8,62.0,29.62,SE,135,10.0,17.0,98,0.00,,,0.05,Rainwise IP-100,2013-10-08 03:44:00,
2013-10-07 23:49:00,62.7,62.0,29.61,ESE,112,4.0,18.0,98,0.00,,,0.05,Rainwise IP-100,2013-10-08 03:49:00,
2013-10-07 23:54:00,62.7,62.0,29.61,SSE,157,2.0,21.0,98,0.00,,,0.05,Rainwise IP-100,2013-10-08 03:54:00,
2013-10-07 23:59:00,62.9,62.0,29.61,South,180,12.0,19.0,98,0.00,,,0.05,Rainwise IP-100,2013-10-08 03:59:00,